Regional Weather Roundup
Issued by NWS

Home | Current Version | Previous Version | Graphics & Text | Print | Product List | Glossary On
Versions: 1 2 3 4 5 6 7 8 9 10 11 12 13 14 15 16 17 18 19 20 21 22 23 24 25 26 27 28 29 30 31 32 33 34 35 36 37 38 39 40 41 42 43 44 45 46 47 48 49 50
000
ASUS45 KTFX 300410
RWRMT
MONTANA REGIONAL WEATHER ROUNDUP
NATIONAL WEATHER SERVICE GREAT FALLS MT
1000 PM MDT FRI JUL 29 2016

NOTE: "FAIR" INDICATES FEW OR NO CLOUDS BELOW 12000 FEET WITH NO
SIGNIFICANT WEATHER AND/OR OBSTRUCTIONS TO VISIBILITY.

MTZ001>007-043-300500-
WEST OF THE DIVIDE

CITY           SKY/WX    TMP DP  RH WIND       PRES   REMARKS
KALISPELL      CLEAR     71  55  56 N10       29.86S
MISSOULA       CLEAR     77  46  33 NW6       29.88S
BUTTE          PTCLDY    76  41  28 CALM      30.06S
MULLAN PASS    CLEAR     70  41  34 VRB3      30.10F
DEER LODGE       N/A     68  43  40 W6        30.02S
EUREKA           N/A     75  48  38 CALM      29.84S
HAMILTON         N/A     72  54  53 CALM      29.92R
LIBBY            N/A     77  46  33 CALM      29.84S
RONAN            N/A     69  57  65 MISG      29.94S
$$

MTZ008-052>055-300500-
SOUTHWEST MONTANA

CITY           SKY/WX    TMP DP  RH WIND       PRES   REMARKS
BOZEMAN        CLEAR     68  51  54 E5        29.99R
DILLON         CLEAR     70  44  39 E8        30.00R
W YELLOWSTONE  MOCLDY    63  37  39 CALM      30.15R
ENNIS          CLEAR     64  39  39 NE5       30.06S
THREE FORKS      N/A     68  30  24 CALM      29.97R
TWIN BRIDGES     N/A     75  40  28 N8        29.98S
$$

MTZ009-010-012-014-046-048-049-054-300500-
EAST SLOPES AND CENTRAL MONTANA

CITY           SKY/WX    TMP DP  RH WIND       PRES   REMARKS
CUT BANK         N/A     71  54  54 SE7       29.96S
GREAT FALLS    CLEAR     73  46  38 E9        29.95S
MALMSTROM AFB  CLEAR     69  48  47 E3        29.95S
HELENA         CLEAR     76  48  37 NW7       29.93R
CHOTEAU          N/A     68  46  45 E8        30.00R
CONRAD           N/A     67  55  65 CALM      30.00S
$$

MTZ011-013-016-021-045-047-050-051-300500-
NORTH CENTRAL MONTANA

CITY           SKY/WX    TMP DP  RH WIND       PRES   REMARKS
HAVRE          CLEAR     71  56  58 MISG      29.91F
N BAR RANCH      N/A     63  50  63 CALM      30.08S
CHINOOK          N/A     72  57  60 CALM      29.92S
$$

MTZ017>020-022>027-061-062-300500-
NORTHEAST MONTANA

CITY           SKY/WX    TMP DP  RH WIND       PRES   REMARKS
GLASGOW        CLEAR     66  58  75 E10       29.94R
JORDAN           N/A     69  58  67 NE5       29.96R
SIDNEY         CLEAR     64  48  56 CALM      29.95S
WOLF POINT     CLEAR     68  56  65 CALM      29.94S
PLENTYWOOD       N/A     66  57  72 E5        29.96S
POPLAR           N/A     72  52  49 E7        29.95S
SCOBEY           N/A     59  42  53 CALM      29.96S
$$

MTZ028>42-056>058-300500-
SOUTHCENTRAL AND SOUTHEAST MONTANA

CITY           SKY/WX    TMP DP  RH WIND       PRES   REMARKS
BAKER          CLEAR     66  57  72 CALM      30.01R
BILLINGS       CLEAR     76  50  40 NE8       29.99R
LIVINGSTON     CLEAR     75  47  36 E16G23    30.01S
MILES CITY     CLEAR     73  54  51 E7        29.96R
EKALAKA          N/A     64  50  60 SE5       30.01R
FORSYTH          N/A     72  54  53 E5        29.96R
LAUREL           N/A     74  51  44 N1        29.98S
ROUNDUP          N/A     74  49  41 CALM      29.92S
$$

REGIONAL REPORTS...DAKOTAS

CITY           SKY/WX    TMP DP  RH WIND       PRES   REMARKS
WILLISTON      CLEAR     69  59  70 E7        29.96S
MINOT          CLEAR     71  61  70 SE7       29.96R
DICKINSON      CLEAR     64  59  83 SE7       29.97S
BEACH            N/A     63  57  82 CALM      30.02S
CROSBY           N/A     59  59 100 SE3       29.98S
WATFORD CITY     N/A    N/A N/A N/A MISG        N/A
BISMARCK       CLEAR     66  62  87 E5        29.97F
GRAND FORKS    CLEAR     65  58  78 SE5       29.99R
FARGO          CLOUDY    71  63  75 S8        30.01R
BUFFALO SD       N/A     72  54  53 SE7       29.94S
RAPID CITY     CLEAR     61  55  81 CALM      30.02R
$$

REGIONAL REPORTS...WYOMING/IDAHO/WASHINGTON

CITY           SKY/WX    TMP DP  RH WIND       PRES   REMARKS
GILLETTE       CLEAR     69  53  56 SE10      30.05R
SHERIDAN       CLOUDY    73  48  41 CALM      30.02R
BUFFALO WY     MOCLDY    71  49  45 SW7       30.10R
CODY           CLEAR     66  55  68 CALM      30.09S
YELLOWSTONE LA   N/A     57  40  52 CALM      30.26R
IDAHO FALLS    CLEAR     81  40  23 SE8       29.95R
SALMON         CLEAR     75  39  27 E6        29.88S
BOISE          CLEAR     88  43  20 SW5       29.81R
SPOKANE        PTCLDY    87  38  17 SW10      29.81S
$$

REGIONAL REPORTS...ALBERTA

CITY           SKY/WX    TMP DP  RH WIND       PRES   REMARKS
EDMONTON       PTCLDY    72  55  56 S6        29.81S
CALGARY        MOCLDY    70  57  64 SE12      29.89S
LETHBRIDGE     PTCLDY    64  59  82 SE7       29.89F
MEDICINE HAT   CLEAR     68  55  64 SE6       29.89F
WATERTON GATE    N/A     59  54  82 S1          N/A
CARDSTON         N/A     66  50  55 S3          N/A
MILK RIVER       N/A     63  55  77 SE6         N/A
$$

REGIONAL REPORTS...SASKATCHEWAN

CITY           SKY/WX    TMP DP  RH WIND       PRES   REMARKS
SWIFT CURRENT  CLEAR     63  59  88 S3        29.94S
SASKATOON      PTCLDY    63  61  94 S7        29.88F
CYPRESS HILLS    N/A     59  48  67 E2          N/A
VAL MARIE        N/A     63  57  82 S2          N/A
ASSINIBOIA       N/A     66  63  88 SE5         N/A
$$



USA.gov is the U.S. government's official web portal to all federal, state and local government web resources and services.